Location: Passo di Treia
(43.2833°N, 13.3333°E)
Time: 18:22:14
(UTC+00:00)

Cosmos 2242 Rocket - Pass Details

Date: 09 December 2019
Orbit: 617 x 652 km, 82.5° (Epoch: 19 January)

Event Time Altitude Azimuth Distance (km) Brightness Sun altitude
Rises 16:35:26 0° 177° (S) 2,944 7.3 -11.4°
Reaches altitude 10° 16:37:41 10° 174° (S) 2,043 6.4 -11.8°
Maximum altitude 16:42:09 60° 95° (E) 748 3.7 -12.5°
Drops below altitude 10° 16:46:41 10° 16° (NNE) 2,069 5.9 -13.3°
Enters shadow 16:48:34 - 13° (NNE) 2,823 6.6 -13.6°
